Wind_Speed
6 5 4 2 3 4 4 7 4 5 8 17 24 12 12 20 9 5 8 17 24 33 34 31 29 27 25 24 23 21 20 18 18 19 20 21 22 21 20 19 19 18 16 14 13 12 11 10 10
5 6 2 1 4 0 6 5 12 1 12 32 11 20 6 4 11 7 20 23 21 34 34 33 30 28 26 24 23 22 21 19 18 19 21 22 22 21 20 19 18 16 14 12 11 10 10 10 11
5 7 2 4 4 6 6 6 9 8 19 26 10 19 11 8 12 22 15 25 28 36 34 33 31 28 26 25 24 23 22 20 19 19 20 21 21 21 19 17 16 15 13 11 10 9 10 10 11
5 3 2 3 9 7 7 13 8 13 27 16 25 3 8 13 16 20 17 20 29 34 33 32 31 29 27 26 25 24 22 21 20 20 21 21 21 20 18 16 15 14 12 10 9 8 9 9 10
2 1 0 4 7 6 7 16 20 10 13 22 20 6 8 19 16 20 22 22 24 34 32 32 32 30 28 26 25 24 23 22 20 20 21 21 20 19 17 15 14 12 10 9 8 7 8 8 9
2 0 1 6 8 4 6 23 20 15 19 22 12 5 10 26 24 22 22 24 23 31 33 32 32 29 28 26 25 24 24 22 21 21 21 20 20 18 16 14 13 11 10 8 7 7 7 7 8
4 3 4 4 5 6 5 15 8 8 13 11 23 4 11 32 28 23 24 21 21 28 34 34 32 31 28 26 25 24 24 23 21 21 21 21 19 18 16 14 12 12 10 8 7 7 7 8 8
4 3 3 3 3 7 6 15 18 16 17 23 20 7 2 27 28 27 30 26 22 23 34 35 35 34 32 28 26 24 23 23 22 21 21 20 19 18 16 15 13 12 10 9 8 8 8 9 9
6 1 3 4 2 5 19 9 28 22 18 27 19 19 24 16 34 34 33 31 30 28 32 35 36 36 35 31 29 26 24 23 22 22 21 21 21 19 17 14 13 11 10 8 8 8 10 13 13
4 3 6 5 4 7 16 17 29 21 22 18 25 25 24 13 5 37 37 35 34 33 33 35 37 37 35 34 32 30 28 27 25 24 22 21 21 19 17 15 13 11 10 9 9 10 13 13 12
4 6 6 15 28 29 20 25 32 20 17 13 18 28 26 26 18 9 24 35 34 33 32 32 37 37 37 37 35 33 31 29 27 25 23 22 22 21 19 16 14 12 11 10 11 13 13 10 12
4 8 14 18 27 19 9 22 18 23 23 24 24 28 31 25 28 26 13 19 36 36 34 33 34 36 37 37 37 36 33 31 29 26 25 24 24 23 19 16 13 12 12 12 13 12 10 12 11
4 3 16 18 18 19 19 9 15 29 31 30 27 23 26 30 27 31 27 19 15 37 39 39 37 38 34 40 39 36 34 31 28 26 26 25 24 22 18 16 15 14 15 16 13 12 9 11 8
11 16 18 20 24 18 7 13 15 24 33 38 32 29 30 31 28 28 34 26 9 20 41 43 42 41 39 42 41 39 35 31 28 27 26 26 24 20 18 17 18 18 18 16 12 10 11 9 6
22 9 13 13 15 10 24 11 8 27 29 33 42 39 30 36 35 30 32 34 23 11 18 45 46 46 44 42 43 41 36 31 29 28 27 27 26 21 22 21 22 19 16 15 12 11 10 7 7
7 4 4 7 5 13 7 15 18 33 33 32 39 44 42 36 39 39 36 35 32 25 16 30 46 50 46 45 43 39 36 33 30 28 28 28 27 23 24 22 21 18 15 15 13 15 12 10 10
3 5 7 11 6 7 5 13 8 24 28 25 31 36 47 40 38 35 30 33 39 31 15 22 43 47 47 44 41 37 31 32 31 29 29 30 28 25 22 22 20 17 15 18 16 13 14 15 13
9 5 7 10 10 5 13 18 12 18 23 24 29 33 31 39 28 29 28 26 29 29 17 21 31 46 45 45 40 32 29 28 28 31 30 32 31 26 24 23 21 21 21 20 21 19 17 14 13
12 16 17 11 8 9 13 15 13 20 21 20 22 23 22 26 27 24 22 22 22 17 13 25 29 43 45 45 38 34 33 30 28 28 28 28 32 30 28 28 25 28 25 27 23 23 20 14 10
10 11 13 15 8 5 5 11 16 16 18 23 19 26 31 31 24 28 31 28 28 26 16 23 32 39 48 46 38 34 32 30 28 27 28 27 32 31 31 30 30 30 26 25 22 23 20 14 9
16 9 10 12 8 5 4 13 17 16 10 21 27 31 34 35 32 27 31 36 34 33 31 15 34 37 47 49 46 34 25 27 34 34 31 35 33 33 34 33 32 33 29 28 23 22 18 17 11
18 14 16 18 8 11 4 13 18 16 16 12 19 28 31 34 33 39 41 35 40 35 32 24 27 45 51 50 46 40 51 49 47 39 38 39 39 33 35 35 33 33 29 28 24 20 17 16 9
15 13 17 22 7 4 4 3 13 5 11 16 16 23 25 22 19 27 40 43 40 39 30 32 26 44 52 55 47 49 51 51 43 41 44 44 41 34 37 38 36 32 29 25 24 22 21 12 7
12 9 10 2 3 5 8 8 23 4 7 6 5 11 9 11 11 16 20 27 38 43 42 30 26 35 51 54 54 48 55 46 45 47 47 48 42 37 38 42 36 30 28 26 26 24 17 9 7
18 11 4 4 2 9 5 7 16 12 12 8 12 5 7 13 15 15 19 26 24 26 36 34 28 32 48 57 58 49 54 53 53 53 50 50 47 43 41 44 37 31 29 29 28 22 15 8 7
11 6 3 5 4 12 7 7 8 8 13 21 8 1 10 18 24 21 21 26 27 29 32 33 28 33 43 54 55 57 56 58 61 56 54 54 50 44 43 44 36 31 32 32 27 20 12 9 9
4 6 7 5 11 9 7 10 9 14 13 5 2 9 15 22 26 27 28 30 30 29 33 32 33 34 39 54 59 58 56 57 59 56 53 55 49 45 45 43 36 35 35 32 25 17 13 12 10
8 6 5 2 4 13 6 8 7 9 3 5 3 5 12 14 18 20 28 32 32 30 27 26 34 38 40 51 58 53 52 50 56 57 56 56 53 50 46 42 39 39 35 29 22 17 14 12 10
5 5 4 3 4 4 10 6 8 8 2 5 5 14 15 17 19 23 29 32 32 25 21 25 28 41 40 45 52 50 53 55 55 58 57 60 57 50 48 44 42 40 34 26 21 18 15 12 9
13 4 3 3 5 5 7 9 12 2 7 3 4 15 14 18 22 27 25 32 31 25 15 22 23 24 37 40 48 51 56 54 56 56 57 60 48 50 51 47 43 37 30 26 21 19 16 10 8
Wind_Direction
270 255 273 345 37 63 259 258 260 316 311 329 1 142 171 162 160 205 177 190 180 179 172 170 169 167 163 162 159 154 148 144 141 143 143 143 144 143 143 144 145 144 140 133 123 115 113 113 113
244 209 268 58 102 140 268 240 257 239 285 326 11 144 120 213 167 155 163 185 181 177 173 170 169 168 166 164 160 157 152 147 142 143 147 149 148 145 143 146 148 146 144 138 129 119 114 114 120
231 208 214 130 171 201 237 237 267 315 328 321 322 129 148 168 183 155 164 165 183 178 173 171 169 169 168 166 163 160 157 151 146 147 151 153 149 146 145 147 148 146 142 135 128 119 117 118 123
140 167 234 147 222 251 227 269 313 323 316 305 312 336 143 158 161 167 157 161 175 178 175 172 170 170 171 169 165 163 161 156 152 152 155 156 152 150 147 144 144 141 137 130 123 118 116 118 127
183 206 221 240 244 255 267 279 295 298 298 297 314 272 168 184 188 174 167 171 180 178 177 175 173 173 173 172 169 167 165 162 158 156 158 160 157 155 149 143 142 141 136 130 126 121 118 123 131
295 254 118 235 239 277 287 281 299 296 294 315 323 198 170 185 185 177 173 174 180 182 178 180 176 176 176 175 173 172 170 167 164 161 163 164 162 157 151 145 143 143 141 139 132 124 124 120 123
154 92 233 263 288 310 274 291 299 313 321 323 330 248 186 179 179 175 177 176 173 188 182 181 180 177 180 179 177 177 174 173 171 168 168 167 166 160 156 152 149 149 148 142 136 131 126 119 124
229 111 261 270 253 283 293 316 314 320 321 336 352 342 203 183 183 178 176 178 174 187 190 184 183 181 181 183 182 183 181 179 176 174 174 171 168 166 163 159 157 152 150 147 142 135 126 122 119
251 17 237 249 249 250 299 313 303 313 309 328 329 353 4 200 182 178 175 175 172 181 193 193 189 186 183 184 185 185 185 184 183 180 179 175 174 172 170 166 162 155 154 151 143 138 129 116 106
171 158 233 223 283 293 299 298 300 313 313 317 323 321 336 15 158 181 183 182 180 181 188 198 197 192 188 187 190 189 188 188 187 185 182 180 179 178 174 175 169 162 161 154 148 142 142 121 114
233 217 248 278 279 278 273 286 289 287 283 303 308 313 322 319 327 14 203 198 200 197 187 194 200 199 194 193 191 194 194 191 190 189 185 182 181 183 181 183 174 170 163 155 148 139 139 137 129
306 279 260 274 279 283 279 286 292 281 286 297 293 299 300 304 304 309 335 229 203 201 201 199 199 202 202 201 198 198 198 196 194 190 187 186 186 188 185 185 178 170 163 155 149 146 144 142 131
214 304 317 310 316 313 295 272 280 289 303 306 305 300 298 297 295 295 300 322 238 217 209 204 203 204 209 206 204 202 201 200 197 192 191 189 191 191 185 184 179 169 163 156 156 150 128 147 132
301 317 307 315 312 311 302 297 301 295 304 301 302 297 291 290 293 288 289 298 338 233 222 213 208 210 211 208 208 205 202 201 200 197 196 192 193 189 179 172 167 158 154 159 155 139 151 155 183
315 326 320 301 300 296 299 300 275 295 295 291 292 292 288 283 281 281 279 281 289 298 260 230 213 208 208 209 207 204 202 203 202 201 199 195 193 182 175 161 158 158 164 163 166 169 179 184 183
309 320 289 276 298 278 288 276 278 286 282 280 280 281 282 276 278 281 277 275 280 283 285 248 224 210 208 208 203 201 202 203 205 203 203 200 195 180 178 174 168 169 177 185 187 192 188 199 213
331 263 258 288 227 255 195 276 287 303 301 277 273 281 277 273 275 277 274 279 273 286 271 259 226 214 206 204 199 195 193 200 203 205 205 203 195 188 184 184 174 180 180 182 179 191 211 225 222
258 247 266 279 295 256 293 290 291 304 301 287 291 298 278 268 280 275 279 284 281 280 253 235 237 217 205 201 196 192 190 194 200 202 203 203 197 191 193 194 191 196 188 191 200 217 224 222 230
260 265 264 276 271 280 273 282 295 302 302 290 295 294 286 274 277 277 274 282 287 307 280 237 221 216 206 200 190 194 192 191 194 194 194 198 199 195 193 196 202 203 202 208 218 223 222 226 231
280 279 284 285 280 260 268 289 288 279 268 261 281 289 290 284 278 276 279 279 279 279 302 241 226 219 211 200 192 192 197 196 204 200 197 201 200 202 199 198 203 203 203 209 219 218 221 218 204
287 275 287 271 263 228 261 277 266 271 249 263 278 280 280 281 278 276 278 272 269 271 280 244 223 218 212 207 202 224 222 210 217 208 205 208 203 204 203 202 207 203 203 212 220 219 216 200 192
279 269 277 285 274 279 133 284 286 270 269 283 274 272 271 273 262 265 271 270 269 272 274 272 233 221 213 209 217 209 201 200 213 207 208 208 205 206 205 205 206 206 210 219 224 214 207 203 202
286 279 277 268 224 125 208 265 260 303 273 267 270 256 278 263 277 281 268 264 268 272 272 269 253 222 218 215 219 220 216 209 205 207 211 207 202 206 206 205 207 209 214 219 215 204 202 195 204
314 339 309 343 119 234 214 198 282 242 229 265 285 264 317 340 341 304 301 280 270 264 269 275 252 233 222 212 215 218 211 210 199 205 208 202 198 201 206 204 205 209 212 206 196 196 198 197 201
345 355 334 321 311 263 217 234 242 278 269 243 269 304 27 13 337 315 292 288 281 279 274 266 250 228 222 217 216 213 214 208 207 205 209 198 196 199 202 203 201 204 202 196 194 197 193 193 195
279 205 196 283 250 285 262 244 254 230 255 266 225 306 357 348 350 320 297 281 283 276 272 268 251 232 218 217 217 216 209 211 209 207 208 200 197 198 202 201 201 199 196 194 195 194 191 181 191
302 265 213 257 273 274 238 267 290 260 270 136 352 3 348 341 343 328 317 287 287 278 263 271 253 238 225 215 217 218 214 211 211 209 210 199 198 200 200 197 195 195 194 194 191 188 180 182 182
203 294 304 355 301 265 256 268 241 293 224 204 274 293 323 329 321 316 321 307 293 283 271 264 254 231 225 221 218 212 216 216 215 211 209 200 199 203 197 192 192 190 191 189 186 180 180 181 180
306 308 308 281 217 273 286 253 211 218 238 235 330 327 326 327 325 314 317 308 297 301 292 245 245 238 229 225 215 208 213 217 214 209 205 197 202 198 191 189 188 189 187 185 184 180 177 183 167
245 176 147 242 280 278 304 274 243 117 62 94 283 309 311 319 317 319 313 305 293 300 283 237 242 235 230 225 212 210 209 210 213 206 199 197 200 194 187 183 186 185 187 179 182 179 175 166 152
Height
1504 1504 1504 1504 1513 1516 1519 1502 1481 1479 1476 1468 1468 1471 1466 1461 1475 1492 1469 1473 1479 1486 1490 1494 1497 1500 1502 1504 1506 1508 1508 1509 1509 1510 1511 1513 1515 1516 1518 1520 1522 1524 1525 1527 1527 1528 1529 1531 1532
1503 1503 1504 1503 1520 1529 1515 1488 1484 1481 1477 1472 1477 1470 1469 1469 1467 1465 1470 1473 1477 1483 1489 1491 1495 1498 1501 1503 1505 1507 1508 1509 1510 1511 1512 1513 1515 1517 1519 1521 1523 1525 1527 1528 1529 1529 1530 1531 1533
1502 1503 1504 1507 1519 1521 1509 1480 1474 1476 1480 1474 1472 1467 1465 1465 1465 1465 1467 1471 1476 1481 1486 1489 1492 1496 1499 1502 1504 1506 1507 1508 1509 1511 1512 1514 1515 1516 1519 1522 1524 1525 1527 1529 1530 1530 1531 1532 1533
1502 1504 1505 1511 1512 1497 1487 1475 1476 1477 1474 1476 1472 1474 1468 1463 1461 1463 1467 1470 1474 1481 1485 1487 1490 1494 1498 1502 1503 1505 1507 1507 1508 1509 1512 1515 1516 1518 1519 1522 1525 1526 1527 1529 1530 1531 1532 1533 1533
1502 1503 1510 1512 1505 1491 1481 1476 1477 1480 1479 1473 1476 1470 1467 1464 1463 1462 1464 1469 1474 1478 1483 1486 1489 1493 1497 1501 1502 1503 1505 1507 1508 1509 1511 1514 1515 1518 1520 1522 1524 1526 1528 1529 1530 1531 1532 1533 1533
1502 1502 1516 1513 1497 1485 1483 1479 1479 1479 1477 1474 1473 1470 1467 1463 1463 1464 1465 1467 1472 1476 1480 1485 1489 1493 1497 1500 1501 1503 1505 1506 1507 1508 1511 1513 1515 1518 1520 1522 1524 1526 1527 1529 1530 1531 1533 1533 1533
1502 1507 1511 1501 1497 1491 1485 1481 1482 1477 1477 1473 1472 1468 1463 1463 1460 1458 1462 1466 1470 1476 1480 1483 1488 1492 1498 1500 1501 1502 1503 1505 1507 1508 1510 1512 1515 1518 1519 1521 1523 1526 1528 1528 1530 1530 1532 1533 1534
1500 1501 1503 1500 1499 1496 1482 1481 1482 1480 1474 1476 1474 1470 1467 1466 1465 1464 1464 1465 1468 1473 1479 1481 1486 1490 1494 1497 1499 1501 1502 1504 1505 1507 1509 1512 1515 1518 1520 1521 1522 1525 1527 1528 1529 1530 1532 1533 1533
1498 1507 1512 1502 1495 1491 1483 1483 1476 1479 1476 1474 1475 1474 1472 1471 1466 1467 1467 1468 1469 1473 1477 1482 1484 1487 1490 1494 1497 1499 1501 1503 1505 1507 1509 1511 1514 1516 1519 1522 1523 1524 1526 1528 1529 1530 1532 1533 1534
1495 1507 1499 1492 1489 1489 1485 1482 1477 1476 1474 1472 1471 1470 1468 1471 1481 1464 1463 1464 1467 1469 1472 1477 1480 1480 1486 1489 1493 1496 1498 1500 1502 1505 1508 1511 1513 1516 1518 1520 1522 1524 1526 1528 1528 1530 1531 1533 1535
1491 1497 1489 1486 1484 1483 1482 1478 1476 1470 1468 1473 1472 1469 1473 1470 1467 1479 1473 1459 1460 1462 1466 1471 1476 1480 1478 1484 1488 1493 1495 1497 1500 1503 1506 1509 1512 1515 1517 1520 1521 1523 1526 1528 1529 1530 1531 1533 1534
1493 1487 1486 1485 1483 1482 1480 1476 1471 1469 1466 1469 1469 1469 1467 1472 1469 1467 1476 1475 1465 1462 1462 1465 1471 1474 1477 1480 1483 1489 1493 1495 1497 1501 1504 1507 1510 1513 1515 1518 1521 1523 1526 1528 1529 1531 1532 1532 1533
1489 1487 1485 1483 1482 1479 1475 1472 1471 1461 1462 1462 1464 1465 1462 1462 1468 1464 1463 1469 1469 1463 1458 1459 1463 1467 1470 1475 1480 1485 1490 1493 1496 1499 1502 1505 1509 1512 1515 1517 1520 1522 1524 1526 1528 1530 1531 1531 1532
1487 1484 1481 1477 1476 1474 1472 1468 1467 1462 1458 1454 1456 1458 1459 1457 1458 1461 1458 1461 1465 1464 1461 1456 1457 1460 1464 1468 1472 1479 1486 1491 1495 1498 1500 1503 1506 1511 1514 1516 1518 1521 1524 1525 1527 1529 1530 1531 1531
1486 1485 1478 1474 1473 1471 1466 1464 1462 1459 1458 1455 1450 1448 1452 1452 1451 1452 1454 1453 1458 1461 1460 1458 1455 1456 1460 1463 1467 1473 1482 1489 1492 1495 1498 1500 1504 1508 1512 1514 1515 1520 1523 1525 1526 1527 1528 1529 1530
1489 1487 1491 1473 1471 1468 1468 1469 1458 1455 1453 1451 1450 1444 1444 1445 1444 1444 1447 1448 1449 1454 1455 1453 1454 1451 1456 1459 1465 1471 1477 1483 1490 1494 1496 1500 1503 1506 1509 1513 1515 1517 1521 1523 1524 1524 1526 1527 1529
1494 1498 1490 1477 1468 1467 1466 1463 1456 1455 1451 1448 1445 1442 1435 1436 1437 1437 1439 1442 1442 1446 1450 1450 1451 1452 1455 1462 1466 1468 1475 1480 1484 1490 1493 1498 1502 1505 1507 1510 1513 1516 1518 1520 1521 1522 1525 1526 1527
1495 1493 1484 1477 1466 1463 1461 1455 1449 1450 1449 1446 1442 1439 1433 1429 1432 1431 1433 1434 1436 1438 1441 1445 1447 1452 1457 1458 1465 1472 1474 1477 1481 1484 1490 1493 1497 1502 1506 1508 1511 1514 1515 1518 1520 1521 1523 1525 1526
1480 1480 1478 1466 1461 1461 1457 1452 1450 1445 1446 1442 1438 1435 1433 1429 1426 1426 1426 1428 1431 1433 1437 1440 1442 1447 1453 1456 1462 1469 1472 1475 1478 1482 1487 1492 1495 1498 1502 1505 1510 1512 1513 1517 1518 1520 1522 1524 1525
1476 1476 1471 1460 1456 1456 1456 1453 1444 1438 1437 1435 1432 1430 1428 1426 1423 1419 1419 1422 1425 1428 1432 1436 1437 1440 1446 1455 1456 1464 1467 1469 1475 1481 1485 1489 1493 1497 1499 1501 1505 1509 1512 1515 1516 1518 1521 1522 1523
1470 1472 1465 1464 1454 1452 1454 1449 1433 1427 1430 1427 1424 1423 1421 1419 1417 1415 1415 1413 1417 1421 1425 1433 1435 1436 1440 1447 1452 1453 1454 1464 1471 1473 1481 1484 1488 1494 1494 1498 1502 1505 1509 1513 1514 1516 1519 1520 1521
1468 1459 1455 1454 1457 1463 1451 1457 1423 1423 1420 1418 1413 1413 1412 1411 1410 1410 1411 1410 1407 1410 1418 1422 1430 1434 1434 1439 1446 1447 1444 1448 1462 1464 1474 1481 1485 1487 1489 1495 1500 1503 1507 1510 1513 1516 1517 1518 1518
1459 1452 1448 1444 1453 1458 1456 1465 1414 1421 1420 1412 1405 1405 1403 1404 1406 1407 1406 1405 1404 1402 1410 1414 1419 1426 1429 1431 1435 1441 1445 1448 1452 1462 1469 1477 1479 1483 1486 1490 1497 1501 1505 1508 1510 1513 1515 1515 1516
1453 1452 1447 1445 1454 1461 1450 1457 1413 1422 1413 1406 1400 1399 1401 1401 1400 1400 1399 1401 1399 1400 1399 1406 1410 1418 1423 1423 1426 1431 1437 1441 1447 1455 1461 1469 1470 1477 1482 1486 1494 1499 1502 1505 1508 1511 1512 1513 1514
1456 1462 1479 1469 1465 1446 1437 1445 1420 1407 1400 1398 1396 1399 1398 1397 1399 1398 1396 1394 1394 1396 1395 1400 1402 1405 1413 1419 1418 1421 1430 1435 1438 1446 1453 1459 1464 1472 1475 1482 1490 1494 1497 1502 1506 1509 1510 1510 1512
1463 1463 1471 1467 1461 1444 1435 1429 1411 1400 1395 1392 1394 1394 1392 1391 1392 1392 1391 1392 1388 1388 1389 1391 1394 1395 1402 1412 1413 1417 1420 1428 1434 1440 1445 1452 1460 1467 1472 1480 1486 1490 1494 1500 1503 1506 1507 1508 1510
1458 1459 1449 1453 1442 1444 1426 1411 1399 1391 1389 1392 1392 1389 1389 1389 1386 1385 1386 1382 1380 1379 1380 1381 1384 1387 1392 1401 1405 1410 1415 1421 1427 1434 1439 1446 1454 1462 1469 1477 1481 1486 1493 1497 1500 1503 1505 1507 1507
1456 1451 1457 1463 1462 1435 1416 1414 1410 1393 1390 1391 1390 1390 1389 1389 1388 1385 1381 1375 1371 1370 1370 1372 1374 1378 1384 1391 1398 1408 1414 1417 1422 1429 1433 1440 1447 1458 1465 1471 1476 1485 1492 1494 1498 1501 1503 1505 1506
1451 1456 1450 1447 1448 1435 1418 1407 1389 1387 1388 1391 1391 1390 1387 1384 1381 1379 1375 1369 1365 1363 1362 1365 1366 1367 1374 1381 1392 1400 1407 1413 1417 1423 1429 1433 1441 1452 1461 1465 1475 1483 1489 1492 1496 1499 1500 1504 1504
1444 1448 1455 1452 1440 1431 1427 1407 1386 1385 1388 1392 1394 1389 1387 1383 1378 1375 1371 1365 1359 1359 1360 1357 1359 1361 1370 1374 1384 1393 1398 1406 1413 1418 1424 1413 1434 1446 1455 1462 1473 1481 1487 1489 1493 1496 1499 1501 1501